Location: Lahas
(43.5538°N, 0.8906°E)
Time: 16:12:58
(UTC+00:00)

BREEZE-M DEB - Pass Details

Date: 15 May 2026
Orbit: 815 x 34901 km, 45.0° (Epoch: 9 June)

Event Time Altitude Azimuth Distance (km) Brightness Sun altitude
Rises 22:29:47 0° 258° (WSW) 3,350 6.9 -24.6°
Reaches altitude 10° 22:31:40 10° 258° (WSW) 2,413 6.2 -24.7°
Maximum altitude 22:36:07 87° 347° (NNW) 1,088 4.1 -25.0°
Drops below altitude 10° 22:47:24 10° 79° (E) 5,835 7.9 -25.6°
Sets 22:56:00 0° 81° (E) 9,386 9.0 -26.1°
